[[{"header":{"parameterUnit":"m.s-1","parameterCategory":1,"la1":30.2991,"la2":30.254,"lo1":-89.0895,"lo2":-89.0444,"dy":0.0017,"dx":0.0017,"nx":28,"ny":28,"refTime":"2024-12-09T03:00:00:Z","depth":0,"parameterNumber":2,"parameterNumberName":"U-component_of_WINDS"},"data":[0,0,0,0,0,0,0,0,0,0,0,0,0,0,0,0,0,0,0,0,0,0,0,0,0,0,0,0,0,0,0,0,0,0,0,0,0,0,0,0,0,0,0,0,0,0,0,0,0,0,0,0,0,0,0,0,0,0,3.8443,3.8443,0,3.848,3.848,3.8481,3.8406,3.8404,3.8401,3.8399,3.8435,3.8438,3.8441,0,0,0,0,0,0,0,0,0,0,0,0,0,3.8308,3.831,3.8443,3.8443,3.8444,3.848,3.848,3.8481,3.8407,3.8404,3.8401,3.8398,3.8434,3.8438,3.8442,0,0,0,0,0,0,0,0,0,0,0,0,0,3.8358,3.8311,3.8443,3.8411,3.8409,3.848,3.848,3.8481,3.8407,3.8404,3.84,3.8396,3.8433,3.8437,3.8442,3.8545,0,0,3.8457,3.8459,0,0,0,0,0,0,0,0,3.8355,3.8363,3.8415,3.8413,3.8411,3.8435,3.8446,3.8502,3.8408,3.8408,3.8399,3.8395,3.8438,3.8442,3.8457,3.8547,3.8548,3.8457,3.846,3.8462,3.8464,0,0,0,0,0,0,0,3.8351,3.8361,3.8457,3.8416,3.8413,3.8395,3.8398,3.8456,3.8443,3.8407,3.8402,3.8408,3.8436,3.8452,3.8457,3.8549,3.8457,3.8462,3.8465,3.8467,3.8727,3.8731,0,0,0,0,0,0,3.8352,3.8358,3.8456,3.8458,3.8373,3.84,3.8404,3.8431,3.8442,3.844,3.8411,3.8404,3.8446,3.8452,3.8458,3.8581,3.8462,3.8467,3.847,3.8723,3.8728,3.8732,0,0,0,0,0,0,3.835,3.8362,3.8455,3.8407,3.8417,3.8407,3.8437,3.8433,3.845,3.8444,3.8441,3.843,3.8443,3.8451,3.8525,3.8581,3.8469,3.8474,3.8718,3.8725,3.873,3.8826,0,0,0,0,0,0,3.8346,3.8361,3.84,3.8408,3.842,3.8521,3.8441,3.8437,3.8459,3.845,3.8462,3.846,3.8441,3.8518,3.8529,3.8586,3.8477,3.8713,3.8721,3.8728,3.8818,3.8835,3.8849,0,0,0,0,0,3.8341,3.8425,3.8402,3.8415,3.8469,3.8524,3.8531,3.8508,3.8463,3.8503,3.8499,3.846,3.8573,3.8526,3.8538,3.8597,3.871,3.8719,3.8728,3.8811,3.8831,3.8849,0,0,0,0,0,0,3.8422,3.8425,3.84,3.8489,3.8507,3.8512,3.856,3.853,3.856,3.8551,3.852,3.8524,3.8603,3.8607,3.8555,3.8698,3.8634,3.8646,3.8693,3.8712,3.8727,3.8725,3.8481,0,0,0,0,0,3.845,3.8496,3.8495,3.8574,3.8584,3.8571,3.8594,3.8575,3.8592,3.8599,3.8601,3.8619,3.8659,3.8685,3.8721,3.8818,3.882,3.8864,3.888,3.8893,3.8904,3.8957,3.8977,3.8762,3.8762,3.8762,0,0,3.8508,3.8516,3.8546,3.859,3.8602,3.865,3.8578,3.8631,3.8666,3.8607,3.8677,3.8679,3.8697,3.8783,3.8821,3.8789,3.8963,3.8904,3.8915,3.8918,3.8968,3.8988,3.9006,3.8768,3.8767,3.8766,0,0,3.864,3.8649,3.8717,3.8731,3.875,3.8741,3.8757,3.8767,3.8767,3.8837,3.8794,3.8835,3.8904,3.8919,3.8936,3.9075,3.9041,3.9088,3.9169,3.9221,3.9238,3.9253,3.9304,3.9323,3.9098,3.9099,3.9099,0,3.871,3.878,3.8755,3.8812,3.8833,3.8783,3.8851,3.8865,3.8895,3.8911,3.8875,3.8961,3.897,3.9059,3.9094,3.9108,3.9127,3.9086,3.9238,3.9253,3.9266,3.9314,3.9334,3.9104,3.9104,3.9103,3.9103,0,3.8866,3.8916,3.8968,3.9,3.9027,3.9089,3.9073,3.9103,3.9082,3.9077,3.915,3.9159,3.9196,3.9216,3.9195,3.9304,3.9283,3.9243,3.9178,3.9293,3.9338,3.9356,3.9113,3.911,3.9109,3.9107,0,0,3.9048,3.9067,3.9086,3.9101,3.912,3.9158,3.9218,3.9256,3.9283,3.9306,3.9356,3.9417,3.938,3.9399,3.938,3.9425,3.9537,3.938,3.938,3.941,3.9659,3.969,3.9712,3.9514,3.9518,3.9521,3.9658,0,3.9179,3.9284,3.9264,3.9366,3.9413,3.9367,3.942,3.9437,3.9435,3.9474,3.947,3.9514,3.9462,3.9474,3.9517,3.9515,3.9587,3.9504,3.9561,3.9564,3.9559,3.9735,3.9767,3.9896,3.9675,3.9678,3.968,0,3.9345,3.9376,3.9484,3.9498,3.9516,3.9564,3.9599,3.9636,3.9655,3.965,3.9673,3.9646,3.9706,3.9641,3.9724,3.9668,3.969,3.9693,3.9698,3.9702,3.9629,3.9745,3.9936,3.9956,3.9707,3.9705,3.9703,0,3.9469,3.9537,3.9611,3.9625,3.9642,3.9677,3.9686,3.9701,3.9726,3.9756,3.9772,3.9808,3.9829,3.9857,3.9841,3.9794,3.9928,3.986,3.9925,3.9926,3.9956,3.9954,4.0154,3.9969,3.9969,3.9968,3.9968,0,3.9618,3.9686,3.9667,3.9713,3.9788,3.9764,3.9839,3.9842,3.9857,3.9903,3.9865,3.9908,3.9883,3.9925,3.9912,3.9984,3.9993,3.9991,3.9987,3.9995,3.9995,4.0009,4.0,3.9973,3.9972,3.9971,3.997,0,3.9768,3.9758,3.9836,3.9847,3.9851,3.9907,3.9916,3.9958,3.9953,4.0012,4.0024,4.0016,4.0063,4.005,4.01,4.0092,4.0183,4.0167,4.0177,4.0173,4.024,4.0235,4.0457,4.0485,4.0281,4.0283,4.0285,0,3.9864,3.9916,3.9933,3.9962,3.9974,4.0019,4.0045,4.0024,4.0053,4.008,4.012,4.0164,4.0198,4.0275,4.0274,4.0313,4.0298,4.0373,4.0304,4.0311,4.0301,4.0298,4.0304,4.0387,4.039,4.0392,4.0393,0,4.0036,4.0029,4.0069,4.0107,4.014,4.0169,4.0194,4.0219,4.02,4.0234,4.0283,4.0309,4.0362,4.0407,4.0443,4.0451,4.042,4.0415,4.0433,4.0442,4.0446,4.0446,4.0216,4.041,4.0408,4.0407,4.0406,4.0406,4.0163,4.0207,4.0227,4.0273,4.029,4.0315,4.0357,4.0358,4.0399,4.0441,4.0426,4.0482,4.0501,4.0546,4.0559,4.0603,4.0574,4.0599,4.0605,4.0612,4.0621,4.0439,4.0609,4.0609,4.0608,4.0608,4.0607,0,4.0334,4.0345,4.0387,4.0425,4.0461,4.043,4.0457,4.0489,4.0539,4.056,4.0595,4.0652,4.0695,4.0699,4.074,4.0774,4.0761,4.0785,4.0783,4.0786,4.0644,4.0625,4.0796,4.0796,4.0796,4.0796,4.0795,4.0795,4.0427,4.0501,4.0498,4.0581,4.0591,4.0646,4.0665,4.0688,4.0705,4.0771,4.0807,4.0809,4.0823,4.0866,4.0904,4.0904,4.0921,4.0952,4.0946,4.0814,4.0795,4.0778,4.076,4.0956,4.0956,4.1084,4.1086,4.1087]},{"header":{"parameterUnit":"m.s-1","parameterCategory":1,"la1":30.2991,"la2":30.254,"lo1":-89.0895,"lo2":-89.0444,"dy":0.0017,"dx":0.0017,"nx":28,"ny":28,"refTime":"2024-12-09T03:00:00:Z","depth":0,"parameterNumber":3,"parameterNumberName":"V-component_of_WINDS"},"data":[0,0,0,0,0,0,0,0,0,0,0,0,0,0,0,0,0,0,0,0,0,0,0,0,0,0,0,0,0,0,0,0,0,0,0,0,0,0,0,0,0,0,0,0,0,0,0,0,0,0,0,0,0,0,0,0,0,0,-1.979,-1.9782,0,-1.9072,-1.9064,-1.9056,-1.8882,-1.8887,-1.8892,-1.8896,-1.8141,-1.8118,-1.8093,0,0,0,0,0,0,0,0,0,0,0,0,0,-2.0993,-2.0972,-1.9791,-1.9782,-1.9773,-1.9074,-1.9064,-1.9054,-1.8881,-1.8887,-1.8893,-1.8898,-1.815,-1.8121,-1.8091,0,0,0,0,0,0,0,0,0,0,0,0,0,-2.0393,-2.0966,-1.9792,-1.9603,-1.9579,-1.9076,-1.9063,-1.9051,-1.888,-1.8887,-1.8894,-1.8901,-1.8159,-1.8123,-1.8087,-1.7715,0,0,-1.7974,-1.7958,0,0,0,0,0,0,0,0,-2.0427,-2.0349,-1.9639,-1.9615,-1.9587,-1.9075,-1.9211,-1.8602,-1.8878,-1.9145,-1.8896,-1.8905,-1.8445,-1.8385,-1.8234,-1.768,-1.7648,-1.7971,-1.7949,-1.7933,-1.7923,0,0,0,0,0,0,0,-2.0469,-2.0378,-1.9506,-1.9629,-1.9597,-1.9547,-1.947,-1.9095,-1.8762,-1.9122,-1.9108,-1.9026,-1.8432,-1.827,-1.8215,-1.7636,-1.7972,-1.7939,-1.7917,-1.7902,-1.6739,-1.6731,0,0,0,0,0,0,-2.0546,-2.0414,-1.9528,-1.9484,-2.0034,-1.952,-1.9434,-1.9231,-1.8766,-1.8703,-1.9021,-1.9021,-1.8329,-1.8258,-1.8188,-1.7719,-1.7933,-1.7899,-1.7878,-1.6748,-1.6737,-1.6727,0,0,0,0,0,0,-2.0573,-2.0469,-1.9557,-1.9945,-1.9825,-1.9492,-1.9266,-1.9213,-1.9051,-1.869,-1.8628,-1.8918,-1.8332,-1.8239,-1.7835,-1.7691,-1.7882,-1.7849,-1.6758,-1.6744,-1.6732,-1.6783,0,0,0,0,0,0,-2.0608,-2.0479,-2.0339,-1.9944,-1.9806,-1.9222,-1.9257,-1.9194,-1.8991,-1.8984,-1.8577,-1.8516,-1.8331,-1.7891,-1.7798,-1.7644,-1.782,-1.6769,-1.6752,-1.6736,-1.6792,-1.6773,-1.6756,0,0,0,0,0,-2.0651,-2.0378,-2.0333,-2.0227,-1.9624,-1.9214,-1.9135,-1.8933,-1.898,-1.8833,-1.8601,-1.8529,-1.7724,-1.7851,-1.7745,-1.7577,-1.6777,-1.6757,-1.6738,-1.68,-1.6777,-1.6757,0,0,0,0,0,0,-2.0757,-2.0322,-2.0267,-1.9859,-1.9576,-1.9186,-1.8994,-1.8914,-1.8606,-1.8612,-1.8369,-1.8278,-1.7889,-1.7692,-1.7843,-1.7192,-1.725,-1.7208,-1.7334,-1.7309,-1.7291,-1.7344,-1.7789,0,0,0,0,0,-2.0735,-2.0445,-2.0078,-1.9752,-1.9614,-1.933,-1.9143,-1.9013,-1.8707,-1.8584,-1.8322,-1.8023,-1.7702,-1.7495,-1.718,-1.6765,-1.6671,-1.6597,-1.658,-1.6567,-1.6531,-1.6294,-1.6256,-1.6662,-1.6663,-1.6663,0,0,-2.0681,-2.0408,-2.0238,-1.9767,-1.9532,-1.9231,-1.9229,-1.8911,-1.8683,-1.8533,-1.8137,-1.7935,-1.7584,-1.7173,-1.6978,-1.6997,-1.6399,-1.6541,-1.6534,-1.6504,-1.627,-1.6232,-1.6198,-1.6649,-1.6651,-1.6654,0,0,-2.0431,-2.0198,-1.99,-1.9667,-1.9314,-1.9127,-1.9056,-1.8678,-1.854,-1.814,-1.8021,-1.7744,-1.7198,-1.6952,-1.6756,-1.6416,-1.6337,-1.632,-1.6224,-1.5996,-1.5964,-1.5934,-1.5809,-1.5768,-1.6287,-1.6287,-1.6287,0,-2.0407,-1.9956,-1.9755,-1.9443,-1.9237,-1.9096,-1.879,-1.8571,-1.813,-1.7989,-1.8019,-1.733,-1.7084,-1.6612,-1.6531,-1.6378,-1.6284,-1.6363,-1.5986,-1.5954,-1.5923,-1.5801,-1.5755,-1.6287,-1.6287,-1.6287,-1.6287,0,-1.9942,-1.9631,-1.9432,-1.9018,-1.879,-1.8482,-1.823,-1.8022,-1.7913,-1.7722,-1.7314,-1.7015,-1.6636,-1.6516,-1.6402,-1.6026,-1.6049,-1.6036,-1.6088,-1.5888,-1.5769,-1.5721,-1.6287,-1.6287,-1.6287,-1.6287,0,0,-1.9733,-1.9217,-1.9146,-1.8956,-1.8558,-1.831,-1.7995,-1.7631,-1.7456,-1.7158,-1.6883,-1.6426,-1.6412,-1.6189,-1.6048,-1.5849,-1.5595,-1.5858,-1.5846,-1.5816,-1.5158,-1.5168,-1.5117,-1.5543,-1.5533,-1.5526,-1.5186,0,-1.943,-1.8869,-1.868,-1.8211,-1.7918,-1.7782,-1.7506,-1.7229,-1.7042,-1.6762,-1.6553,-1.6232,-1.624,-1.6104,-1.5902,-1.567,-1.5459,-1.5692,-1.5278,-1.5266,-1.5367,-1.5055,-1.5063,-1.4758,-1.5139,-1.5131,-1.5125,0,-1.9001,-1.8704,-1.8208,-1.7847,-1.7717,-1.7474,-1.7125,-1.6861,-1.6543,-1.642,-1.6175,-1.6049,-1.5709,-1.5787,-1.5312,-1.5475,-1.5295,-1.5156,-1.5138,-1.5087,-1.5181,-1.4992,-1.4655,-1.4609,-1.505,-1.5056,-1.5061,0,-1.8894,-1.8369,-1.8004,-1.7846,-1.7417,-1.7249,-1.7061,-1.6751,-1.6544,-1.6238,-1.61,-1.5757,-1.5567,-1.5302,-1.5085,-1.5163,-1.4628,-1.4688,-1.4511,-1.4517,-1.44,-1.4409,-1.4026,-1.4293,-1.4294,-1.4295,-1.4296,0,-1.8573,-1.8273,-1.7951,-1.7726,-1.7385,-1.717,-1.6837,-1.664,-1.6366,-1.6096,-1.5956,-1.5704,-1.5436,-1.5148,-1.4976,-1.4607,-1.4522,-1.441,-1.4367,-1.4419,-1.4433,-1.4294,-1.4308,-1.4282,-1.4285,-1.4287,-1.429,0,-1.8393,-1.8166,-1.7758,-1.7388,-1.7288,-1.7053,-1.6732,-1.6506,-1.6317,-1.5976,-1.5884,-1.5583,-1.5236,-1.4997,-1.455,-1.4434,-1.4034,-1.3995,-1.4143,-1.4121,-1.3956,-1.3974,-1.3465,-1.3386,-1.3713,-1.371,-1.3708,0,-1.8201,-1.7969,-1.7575,-1.7388,-1.7202,-1.6901,-1.6692,-1.6471,-1.6257,-1.5879,-1.5696,-1.5343,-1.5047,-1.45,-1.4237,-1.3895,-1.3844,-1.369,-1.3791,-1.3851,-1.3836,-1.3851,-1.3825,-1.3673,-1.3671,-1.3669,-1.3667,0,-1.7883,-1.7783,-1.749,-1.7156,-1.6912,-1.6637,-1.636,-1.6213,-1.5943,-1.5709,-1.5357,-1.5129,-1.4677,-1.4325,-1.3959,-1.3758,-1.3664,-1.3639,-1.3579,-1.3627,-1.3721,-1.3664,-1.4096,-1.3649,-1.3651,-1.3653,-1.3653,-1.3654,-1.7686,-1.7473,-1.7164,-1.6841,-1.6612,-1.6357,-1.6127,-1.5911,-1.5616,-1.5234,-1.5121,-1.4754,-1.444,-1.3939,-1.3734,-1.344,-1.345,-1.3365,-1.3342,-1.3323,-1.3322,-1.3774,-1.3373,-1.3373,-1.3373,-1.3373,-1.3373,0,-1.7357,-1.7153,-1.686,-1.648,-1.6225,-1.6169,-1.586,-1.5649,-1.533,-1.5049,-1.4763,-1.4358,-1.4017,-1.3731,-1.3377,-1.3196,-1.3144,-1.311,-1.3118,-1.3073,-1.3335,-1.3421,-1.3158,-1.3158,-1.3159,-1.3159,-1.3159,-1.3159,-1.7156,-1.6792,-1.6656,-1.6175,-1.597,-1.5615,-1.5443,-1.5205,-1.4979,-1.4536,-1.4254,-1.4073,-1.3786,-1.3412,-1.3095,-1.3019,-1.2893,-1.2868,-1.2782,-1.303,-1.3055,-1.3078,-1.3157,-1.2844,-1.2843,-1.2543,-1.254,-1.2538]}]]